Weather History for Broomfield, CO

Change the Weather History Date:

Wednesday, March 5, 2014

  Actual Average Record
Temperature  
Mean Temperature 40 °F -  
Max Temperature 53 °F 47 °F 73 °F (1987)
Min Temperature 26 °F 26 °F 10 °F (2003)
Degree Days  
Heating Degree Days 26    
Moisture  
Dew Point 28 °F    
Average Humidity 75    
Maximum Humidity 100    
Minimum Humidity 33    
Precipitation  
Precipitation 0.00 in - - ()
Sea Level Pressure  
Sea Level Pressure 30.09 in    
Wind  
Wind Speed 3 mph (SSW)    
Max Wind Speed 10 mph    
Max Gust Speed -    
Visibility 7 miles    
Events Fog , Snow    
Averages and records for this station are not official NWS values.
T = Trace of Precipitation, MM = Missing Value Source: NWS Daily Summary

Daily Weather History Graph

Daily Weather History Graph

Search for Another Location

Airport:

Trip Planner

Search our weather history database for the weather conditions in past years. The results will help you decide how hot, cold, wet, or windy it might be!

Date:

Astronomy

Mar. 05, 2014 Rise Set
Actual Time 6:27 AM MST 5:56 PM MST
Civil Twilight 6:00 AM MST 6:23 PM MST
Nautical Twilight 5:29 AM MST 6:55 PM MST
Astronomical Twilight 4:57 AM MST 7:26 PM MST
Moon 8:55 AM MST (3/5) 11:07 PM MST (3/5)
Length of Visible Light 12h 23m
Length of Day
11h 29m
Waxing Crescent, 24% of the Moon is Illuminated
Mar 5
Waxing Crescent
Mar 8
First Quarter
Mar 16
Full
Mar 23
Last Quarter
Mar 30
New

Hourly Weather History & Observations

Time (MST) Temp. Windchill Dew Point Humidity Pressure Visibility Wind Dir Wind Speed Gust Speed Precip Events Conditions
12:14 AM 32.0 °F 28.7 °F 32.0 °F 100% 30.09 in 1.2 mi East 3.5 mph - N/A Snow Light Snow
12:35 AM 32.0 °F 26.4 °F 32.0 °F 100% 30.10 in 3.0 mi West 5.8 mph - N/A Snow Light Snow
12:55 AM 32.0 °F 27.5 °F 32.0 °F 100% 30.10 in 3.0 mi WNW 4.6 mph - N/A Snow Light Snow
1:15 AM 32.0 °F - 32.0 °F 100% 30.10 in 10.0 mi Calm Calm - N/A   Overcast
1:35 AM 32.0 °F - 32.0 °F 100% 30.09 in 10.0 mi Calm Calm - N/A   Overcast
1:55 AM 32.0 °F - 32.0 °F 100% 30.09 in 10.0 mi Calm Calm - N/A   Overcast
2:15 AM 32.0 °F - 32.0 °F 100% 30.10 in 10.0 mi Calm Calm - N/A   Overcast
2:35 AM 32.0 °F - 32.0 °F 100% 30.10 in 10.0 mi Calm Calm - N/A   Overcast
2:54 AM 32.0 °F - 32.0 °F 100% 30.10 in 10.0 mi Calm Calm - N/A   Overcast
3:14 AM 32.0 °F - 32.0 °F 100% 30.09 in 7.0 mi Calm Calm - N/A   Scattered Clouds
3:35 AM 32.0 °F - 32.0 °F 100% 30.09 in 0.2 mi Calm Calm - N/A Fog Fog
3:55 AM 32.0 °F - 32.0 °F 100% 30.09 in 0.2 mi Calm Calm - N/A Fog Fog
4:14 AM 30.2 °F 26.7 °F 30.2 °F 100% 30.08 in 0.2 mi WSW 3.5 mph - N/A Fog Light Freezing Fog
4:35 AM 30.2 °F 25.4 °F 30.2 °F 100% 30.08 in 0.2 mi SW 4.6 mph - N/A Fog Light Freezing Fog
4:55 AM 26.6 °F 20.0 °F 26.6 °F 100% 30.08 in 10.0 mi WSW 5.8 mph - N/A   Clear
5:51 AM 28.4 °F - 28.4 °F 100% 30.09 in 25.0 mi Calm Calm - N/A   Partly Cloudy
6:46 AM 26.6 °F 19.1 °F 24.8 °F 93% 30.10 in 60.0 mi WSW 6.9 mph - N/A   Scattered Clouds
7:47 AM 32.0 °F - 28.4 °F 87% 30.12 in 60.0 mi Calm Calm - N/A   Scattered Clouds
9:47 AM 37.4 °F - 30.2 °F 75% 30.13 in 60.0 mi Calm Calm - N/A   Partly Cloudy
9:55 AM 33.8 °F - 28.4 °F 81% 30.13 in 60.0 mi Calm Calm - N/A   Partly Cloudy
10:48 AM 41.0 °F - 30.2 °F 65% 30.14 in 60.0 mi Calm Calm - N/A   Partly Cloudy
11:47 AM 44.6 °F 43.1 °F 33.8 °F 66% 30.13 in 50.0 mi Variable 3.5 mph - N/A   Partly Cloudy
1:47 PM 50.0 °F - 26.6 °F 40% 30.08 in 50.0 mi Variable 3.5 mph - N/A   Partly Cloudy
2:45 PM 50.0 °F - 26.6 °F 40% 30.08 in 40.0 mi ESE 6.9 mph - N/A   Partly Cloudy
4:50 PM 53.6 °F - 24.8 °F 33% 30.07 in 40.0 mi ESE 4.6 mph - N/A   Scattered Clouds
5:47 PM 48.2 °F - 24.8 °F 40% 30.07 in 40.0 mi ESE 9.2 mph - N/A   Scattered Clouds
6:55 PM 46.4 °F 42.9 °F 23.0 °F 40% 30.08 in 40.0 mi South 6.9 mph - N/A   Scattered Clouds
7:46 PM 42.8 °F - 23.0 °F 46% 30.08 in 40.0 mi Calm Calm - N/A   Scattered Clouds
8:55 PM 44.6 °F - 21.2 °F 39% 30.07 in 40.0 mi Calm Calm - N/A   Scattered Clouds
9:45 PM 41.0 °F 38.0 °F 21.2 °F 45% 30.06 in 30.0 mi SW 4.6 mph - N/A   Scattered Clouds
10:14 PM 37.4 °F 34.9 °F 24.8 °F 60% 30.06 in 10.0 mi South 3.5 mph - N/A   Clear
10:35 PM 37.4 °F 33.8 °F 24.8 °F 60% 30.06 in 10.0 mi South 4.6 mph - N/A   Clear
10:55 PM 39.2 °F 37.0 °F 23.0 °F 52% 30.05 in 10.0 mi SW 3.5 mph - N/A   Clear
11:14 PM 39.2 °F 35.0 °F 21.2 °F 49% 30.04 in 10.0 mi SW 5.8 mph - N/A   Clear
11:35 PM 41.0 °F 34.7 °F 19.4 °F 42% 30.04 in 10.0 mi West 10.4 mph - N/A   Clear
11:55 PM 41.0 °F 34.7 °F 17.6 °F 39% 30.03 in 10.0 mi WSW 10.4 mph - N/A   Clear